Temp
69 68 68 68 68 67 66 66 66 65 66 66 65 65 65 65 66 65 65 65 65 65 65 65 66 65 66 66 66 67 66 64 65 65 65 64 64 64 63 63 63 63
67 67 68 67 67 66 66 67 66 65 65 65 65 65 65 65 65 65 65 65 66 65 65 65 65 66 65 66 65 65 65 64 63 65 65 64 64 64 63 63 63 64
67 67 66 65 65 66 66 66 65 65 64 64 65 65 65 65 65 65 65 65 65 65 65 65 64 65 65 65 65 65 64 63 62 64 64 64 64 63 63 64 63 63
65 66 66 66 66 65 65 65 65 65 65 64 64 65 65 65 65 65 65 65 65 64 65 64 64 64 65 65 65 64 64 64 64 64 64 64 64 64 63 63 63 63
64 65 66 66 65 65 65 64 64 64 64 64 65 65 65 65 65 65 65 64 65 65 64 64 64 64 64 64 64 63 63 63 64 64 64 63 64 63 63 63 62 62
66 67 66 65 65 65 64 64 64 64 64 64 64 65 65 65 65 65 65 65 65 65 64 64 64 64 64 64 63 63 63 62 63 64 63 63 63 64 63 62 62 62
64 64 64 65 64 64 64 63 64 64 64 64 65 64 65 64 64 65 66 65 65 65 65 64 64 62 63 63 63 62 63 62 63 63 62 62 62 62 63 62 62 62
63 64 65 64 63 64 63 64 64 64 64 65 63 64 65 65 65 65 66 65 65 65 64 64 63 63 63 63 62 61 62 62 62 62 61 62 61 61 61 61 61 61
64 64 64 63 63 63 63 63 63 64 65 64 64 64 65 65 65 65 65 65 65 64 64 63 62 62 62 62 61 61 62 61 62 61 61 60 60 60 61 61 60 60
63 63 63 63 62 62 62 63 64 64 65 64 65 65 64 64 65 65 64 64 63 64 63 62 61 61 61 61 61 61 61 61 62 61 61 61 61 61 61 61 60 59
62 63 62 62 62 62 62 63 63 64 65 65 64 64 65 64 64 65 64 63 62 62 62 61 60 60 59 59 60 60 61 61 61 62 61 61 61 61 60 60 60 59
62 62 62 62 62 62 62 63 64 64 64 64 65 64 64 64 63 64 64 63 63 62 61 60 59 58 57 57 58 59 60 60 61 61 61 62 61 61 61 61 59 60
62 62 62 62 62 62 63 64 64 64 64 64 65 64 64 63 64 63 63 63 62 61 59 58 57 56 55 55 56 58 59 61 61 61 61 61 61 61 61 61 60 60
62 62 63 63 63 63 63 63 63 64 63 64 64 63 63 64 63 63 62 63 61 60 58 57 56 55 53 53 54 55 57 61 61 60 60 61 60 61 61 60 60 60
62 63 63 63 64 63 63 63 63 63 64 64 63 62 62 64 64 63 63 62 61 59 58 56 54 52 50 49 50 53 55 60 60 61 60 60 60 60 60 60 60 59
63 63 64 63 63 63 63 63 63 62 62 61 62 62 62 62 62 62 63 61 60 59 57 55 53 51 45 42 42 48 52 57 60 60 60 60 59 58 59 59 59 59
64 64 64 63 63 63 62 63 62 61 61 61 61 61 61 61 61 61 60 60 59 57 56 54 52 49 41 40 40 40 48 53 58 59 60 59 59 58 58 58 59 59
64 64 63 62 63 63 63 63 62 61 60 60 60 60 60 60 59 60 60 60 58 57 55 53 52 43 40 40 41 40 42 48 58 59 59 60 59 59 60 59 58 57
64 64 63 63 62 62 61 60 60 60 61 60 59 60 60 59 59 59 59 59 59 57 54 53 53 43 40 40 41 40 40 44 60 59 59 59 59 59 60 59 59 58
64 63 62 61 61 61 62 62 61 61 61 61 61 60 59 58 58 58 58 58 58 57 55 53 52 44 40 40 41 39 40 42 60 59 59 60 59 59 60 59 58 56
63 63 62 63 63 63 62 62 61 61 61 61 61 60 59 59 58 57 57 58 58 58 55 53 50 41 41 40 40 40 40 44 60 60 60 60 60 60 60 59 57 56
64 63 63 63 62 62 61 61 60 60 60 61 61 61 60 60 59 59 57 57 58 58 56 54 51 40 40 40 40 40 41 57 59 59 59 60 60 59 61 61 60 58
64 63 62 62 62 61 61 60 60 60 61 62 60 60 60 59 59 58 59 57 57 57 56 55 53 45 40 40 40 40 45 57 58 58 58 58 59 59 60 61 59 58
65 64 63 62 62 61 60 60 60 61 61 62 61 60 60 60 61 60 59 58 56 55 56 55 53 47 40 41 41 40 45 55 58 56 56 57 59 60 60 61 59 51
65 64 63 62 62 61 60 60 60 61 61 62 62 62 61 62 62 60 59 59 57 56 53 55 55 50 42 41 41 41 46 54 57 56 54 54 57 58 59 60 59 56
64 63 63 62 62 61 61 61 62 61 61 62 63 64 63 62 62 60 59 59 59 58 56 56 56 54 49 41 41 42 41 50 56 53 52 53 55 58 57 58 58 58
MSLP
1021.03 1021.10 1021.27 1021.34 1021.42 1021.66 1021.83 1021.98 1022.15 1022.30 1022.42 1022.47 1022.66 1022.86 1022.98 1023.10 1023.07 1023.07 1022.98 1022.98 1022.98 1022.95 1022.91 1022.83 1022.71 1022.62 1022.42 1022.30 1022.18 1021.98 1021.95 1022.03 1021.95 1021.86 1021.66 1021.59 1021.51 1021.39 1021.42 1021.30 1021.10 1020.86
1021.47 1021.54 1021.62 1021.74 1021.95 1022.07 1022.18 1022.22 1022.34 1022.59 1022.74 1022.83 1022.95 1023.07 1023.22 1023.27 1023.34 1023.30 1023.27 1023.15 1023.15 1023.18 1023.10 1022.98 1022.91 1022.74 1022.62 1022.47 1022.39 1022.27 1022.18 1022.22 1022.18 1021.98 1021.78 1021.74 1021.62 1021.51 1021.47 1021.34 1021.18 1021.03
1021.71 1021.83 1021.98 1022.15 1022.22 1022.27 1022.39 1022.54 1022.71 1022.83 1022.98 1023.15 1023.22 1023.30 1023.42 1023.47 1023.51 1023.51 1023.47 1023.39 1023.39 1023.34 1023.30 1023.18 1023.10 1022.98 1022.83 1022.66 1022.54 1022.47 1022.42 1022.42 1022.39 1022.15 1021.95 1021.91 1021.83 1021.74 1021.62 1021.42 1021.34 1021.18
1022.15 1022.15 1022.18 1022.30 1022.39 1022.62 1022.71 1022.78 1022.86 1022.98 1023.15 1023.30 1023.47 1023.54 1023.59 1023.62 1023.62 1023.62 1023.62 1023.59 1023.54 1023.51 1023.47 1023.39 1023.30 1023.18 1022.98 1022.91 1022.74 1022.71 1022.62 1022.54 1022.54 1022.30 1022.15 1022.07 1021.98 1021.91 1021.83 1021.66 1021.59 1021.34
1022.42 1022.39 1022.39 1022.59 1022.74 1022.86 1022.91 1023.03 1023.18 1023.34 1023.47 1023.59 1023.66 1023.66 1023.71 1023.74 1023.71 1023.71 1023.74 1023.74 1023.71 1023.66 1023.54 1023.42 1023.39 1023.30 1023.18 1023.07 1022.98 1022.91 1022.83 1022.71 1022.62 1022.42 1022.30 1022.22 1022.07 1022.03 1021.95 1021.86 1021.74 1021.54
1022.34 1022.51 1022.74 1022.83 1022.91 1022.98 1023.15 1023.27 1023.42 1023.59 1023.74 1023.83 1023.91 1023.86 1023.95 1023.91 1023.86 1023.86 1023.86 1023.83 1023.78 1023.66 1023.59 1023.51 1023.51 1023.47 1023.39 1023.27 1023.18 1023.10 1023.03 1022.95 1022.83 1022.62 1022.54 1022.47 1022.34 1022.22 1022.15 1022.10 1021.98 1021.74
1022.83 1022.98 1023.07 1023.10 1023.22 1023.39 1023.51 1023.62 1023.74 1023.86 1023.95 1024.03 1024.06 1024.10 1024.06 1024.10 1024.06 1024.03 1023.98 1023.91 1023.78 1023.74 1023.66 1023.62 1023.62 1023.71 1023.59 1023.47 1023.42 1023.34 1023.22 1023.27 1023.03 1022.86 1022.83 1022.71 1022.59 1022.47 1022.39 1022.30 1022.18 1021.91
1023.07 1023.10 1023.22 1023.39 1023.51 1023.62 1023.74 1023.86 1024.03 1024.15 1024.19 1024.27 1024.34 1024.34 1024.27 1024.22 1024.22 1024.19 1024.03 1023.98 1023.95 1023.86 1023.86 1023.83 1023.86 1023.86 1023.83 1023.71 1023.71 1023.54 1023.42 1023.39 1023.27 1023.15 1023.10 1022.95 1022.83 1022.74 1022.62 1022.54 1022.39 1022.18
1023.27 1023.39 1023.54 1023.66 1023.78 1023.86 1024.03 1024.15 1024.27 1024.34 1024.34 1024.39 1024.43 1024.51 1024.46 1024.39 1024.34 1024.27 1024.22 1024.06 1024.03 1024.06 1024.15 1024.22 1024.22 1024.19 1024.10 1023.98 1023.95 1023.83 1023.62 1023.54 1023.42 1023.39 1023.34 1023.18 1023.10 1022.95 1022.78 1022.66 1022.54 1022.42
1023.47 1023.62 1023.78 1023.91 1024.06 1024.19 1024.31 1024.34 1024.43 1024.51 1024.58 1024.58 1024.58 1024.55 1024.58 1024.62 1024.46 1024.39 1024.34 1024.31 1024.22 1024.22 1024.43 1024.55 1024.58 1024.55 1024.43 1024.31 1024.19 1024.06 1023.86 1023.74 1023.59 1023.51 1023.39 1023.27 1023.18 1023.03 1022.91 1022.78 1022.74 1022.62
1023.71 1023.86 1024.03 1024.19 1024.34 1024.46 1024.58 1024.58 1024.67 1024.67 1024.70 1024.70 1024.74 1024.74 1024.70 1024.67 1024.62 1024.46 1024.46 1024.51 1024.58 1024.62 1024.74 1024.94 1025.03 1024.98 1024.94 1024.74 1024.51 1024.34 1024.06 1023.86 1023.74 1023.62 1023.51 1023.39 1023.22 1023.03 1023.03 1022.98 1022.83 1022.74
1023.91 1024.06 1024.27 1024.43 1024.55 1024.67 1024.70 1024.79 1024.79 1024.82 1024.91 1024.91 1024.86 1024.91 1024.91 1024.82 1024.82 1024.74 1024.67 1024.74 1024.91 1025.10 1025.19 1025.39 1025.46 1025.51 1025.43 1025.31 1025.03 1024.74 1024.43 1024.10 1023.91 1023.83 1023.59 1023.47 1023.34 1023.18 1023.15 1023.10 1023.07 1022.91
1024.03 1024.19 1024.39 1024.55 1024.70 1024.79 1024.86 1024.91 1024.98 1025.03 1025.03 1025.06 1025.03 1024.98 1024.94 1024.91 1024.91 1024.94 1025.03 1025.06 1025.31 1025.55 1025.67 1025.79 1025.91 1025.98 1025.94 1025.79 1025.46 1025.15 1024.74 1024.22 1023.98 1023.91 1023.66 1023.66 1023.51 1023.42 1023.34 1023.30 1023.22 1023.07
1024.15 1024.34 1024.51 1024.67 1024.79 1024.91 1025.03 1025.10 1025.15 1025.22 1025.27 1025.31 1025.27 1025.22 1025.15 1025.10 1025.10 1025.10 1025.22 1025.39 1025.62 1025.91 1026.10 1026.27 1026.39 1026.43 1026.51 1026.43 1026.03 1025.62 1025.03 1024.27 1024.15 1023.98 1023.83 1023.66 1023.62 1023.59 1023.47 1023.47 1023.34 1023.34
1024.31 1024.46 1024.67 1024.79 1024.91 1025.06 1025.19 1025.31 1025.39 1025.39 1025.39 1025.34 1025.39 1025.43 1025.39 1025.34 1025.27 1025.27 1025.39 1025.55 1025.82 1026.15 1026.39 1026.67 1026.79 1026.91 1027.15 1027.22 1026.79 1026.15 1025.55 1024.43 1024.27 1024.06 1023.91 1023.78 1023.74 1023.71 1023.54 1023.66 1023.62 1023.54
1024.31 1024.55 1024.67 1024.86 1025.03 1025.19 1025.31 1025.46 1025.55 1025.62 1025.67 1025.67 1025.62 1025.58 1025.62 1025.62 1025.67 1025.67 1025.67 1025.82 1026.10 1026.39 1026.67 1026.91 1027.15 1027.34 1027.70 1027.58 1027.46 1027.06 1026.19 1025.03 1024.34 1024.19 1023.98 1023.86 1023.95 1023.78 1023.74 1023.71 1023.59 1023.54
1024.27 1024.51 1024.70 1024.94 1025.19 1025.34 1025.51 1025.58 1025.79 1025.91 1025.98 1025.98 1025.94 1025.91 1025.91 1025.91 1025.94 1026.03 1026.10 1026.19 1026.39 1026.70 1026.91 1027.10 1027.39 1027.79 1027.91 1027.62 1027.27 1026.98 1026.67 1025.79 1024.67 1024.31 1024.10 1023.98 1023.91 1023.78 1023.66 1023.47 1023.51 1023.54
1024.27 1024.51 1024.79 1025.06 1025.27 1025.43 1025.55 1025.70 1025.86 1026.06 1026.22 1026.22 1026.19 1026.19 1026.19 1026.19 1026.31 1026.31 1026.31 1026.39 1026.55 1026.86 1027.15 1027.34 1027.58 1028.15 1027.94 1027.70 1027.39 1026.86 1026.62 1026.15 1024.74 1024.43 1024.19 1023.95 1023.91 1023.74 1023.39 1023.39 1023.47 1023.51
1024.34 1024.58 1024.86 1025.10 1025.39 1025.62 1025.86 1026.06 1026.22 1026.27 1026.27 1026.31 1026.34 1026.34 1026.43 1026.51 1026.58 1026.58 1026.51 1026.46 1026.58 1026.98 1027.34 1027.58 1027.67 1028.19 1027.98 1027.74 1027.43 1027.06 1026.51 1026.10 1024.74 1024.51 1024.22 1024.15 1023.91 1023.74 1023.39 1023.39 1023.22 1023.30
1024.43 1024.82 1025.22 1025.55 1025.79 1025.82 1025.74 1025.74 1025.98 1026.27 1026.31 1026.31 1026.34 1026.43 1026.58 1026.70 1026.79 1026.79 1026.70 1026.67 1026.67 1026.86 1027.39 1027.79 1027.98 1028.22 1028.06 1027.74 1027.43 1026.98 1026.39 1025.91 1024.74 1024.46 1024.27 1024.10 1023.98 1023.83 1023.47 1023.42 1023.39 1023.71
1024.62 1024.86 1025.06 1025.27 1025.34 1025.51 1025.62 1025.91 1026.15 1026.27 1026.27 1026.31 1026.39 1026.51 1026.58 1026.67 1026.74 1026.86 1026.94 1026.86 1026.79 1026.91 1027.34 1027.86 1028.27 1028.39 1028.06 1027.79 1027.43 1027.03 1026.27 1025.51 1024.58 1024.43 1024.22 1024.10 1023.91 1023.74 1023.42 1023.39 1023.74 1023.91
1024.39 1024.70 1024.98 1025.27 1025.46 1025.62 1025.82 1026.10 1026.31 1026.43 1026.46 1026.43 1026.46 1026.55 1026.62 1026.67 1026.79 1026.86 1027.03 1027.06 1026.98 1026.98 1027.22 1027.67 1028.19 1028.43 1028.19 1027.91 1027.51 1027.15 1026.43 1025.10 1024.70 1024.46 1024.31 1023.98 1023.83 1023.86 1023.39 1023.34 1023.42 1023.71
1024.34 1024.74 1025.03 1025.27 1025.51 1025.70 1025.98 1026.27 1026.39 1026.43 1026.39 1026.34 1026.46 1026.51 1026.58 1026.67 1026.79 1026.91 1027.06 1027.22 1027.27 1027.15 1027.19 1027.58 1027.98 1028.34 1028.27 1028.03 1027.67 1027.39 1026.62 1025.31 1024.94 1024.74 1024.55 1024.27 1023.83 1023.83 1023.47 1023.30 1023.54 1023.83
1024.34 1024.70 1025.06 1025.31 1025.55 1025.82 1026.15 1026.34 1026.39 1026.39 1026.43 1026.34 1026.34 1026.43 1026.46 1026.46 1026.55 1026.79 1027.03 1027.31 1027.51 1027.55 1027.39 1027.43 1027.86 1028.31 1028.31 1028.10 1027.79 1027.46 1026.98 1025.82 1025.19 1025.15 1024.94 1024.46 1023.74 1023.74 1023.51 1023.27 1023.47 1024.10
1024.39 1024.74 1025.10 1025.34 1025.58 1025.98 1026.22 1026.34 1026.34 1026.39 1026.34 1026.27 1026.22 1026.22 1026.27 1026.27 1026.39 1026.58 1026.86 1027.10 1027.43 1027.67 1027.74 1027.43 1027.58 1028.03 1028.27 1028.10 1027.94 1027.62 1027.27 1026.31 1025.58 1025.55 1025.34 1025.03 1024.10 1023.74 1023.66 1023.39 1023.47 1023.62
1024.51 1024.86 1025.15 1025.43 1025.74 1026.06 1026.15 1026.22 1026.22 1026.31 1026.27 1026.10 1025.98 1025.86 1026.03 1026.15 1026.31 1026.58 1026.79 1026.91 1027.06 1027.31 1027.55 1027.51 1027.46 1027.67 1028.06 1027.98 1027.91 1027.70 1027.55 1027.03 1026.06 1026.06 1025.86 1025.51 1024.74 1023.91 1023.86 1023.59 1023.51 1023.42
Wind_Speed
7 6 6 7 7 7 7 7 7 7 6 5 6 6 6 6 6 6 6 6 7 7 7 7 7 7 6 6 7 6 7 7 7 6 7 7 7 7 7 8 8 8
8 7 7 7 7 7 7 7 8 7 7 6 6 6 6 6 6 6 6 6 6 7 7 7 7 8 8 7 7 6 7 7 8 6 6 9 7 8 8 8 8 9
8 8 8 9 8 9 9 8 8 7 7 7 6 6 5 5 5 6 6 6 6 6 7 7 7 8 8 7 7 6 7 8 8 8 7 8 7 8 8 8 8 9
8 8 8 9 9 9 8 7 7 7 6 6 6 5 5 4 5 5 6 6 6 6 6 7 7 7 7 8 7 6 7 7 7 7 7 7 7 8 8 8 8 8
9 8 8 9 9 8 8 8 8 7 7 6 6 5 5 5 5 6 6 5 5 6 6 7 7 7 7 7 7 7 7 6 8 8 7 7 7 8 7 8 9 9
9 9 9 8 8 8 8 8 8 8 7 7 6 5 5 5 5 6 6 6 6 6 7 7 8 7 7 7 7 7 7 7 8 9 9 8 8 8 7 8 9 9
10 9 10 9 9 9 9 8 8 7 7 6 6 6 5 6 6 6 6 6 7 7 8 8 8 8 7 7 7 8 7 7 8 9 9 8 8 9 9 8 9 9
9 9 9 9 9 9 8 8 7 7 6 6 6 6 6 6 6 5 6 7 7 9 9 9 9 9 8 7 8 8 7 6 7 9 9 9 8 9 9 8 9 9
9 9 9 9 9 8 9 8 7 7 6 6 6 6 5 5 6 6 7 7 8 9 9 9 10 9 8 8 8 8 8 8 8 8 8 8 9 9 9 8 9 9
10 9 10 9 9 8 8 8 7 7 6 6 6 5 6 5 6 7 7 8 9 10 10 10 10 10 9 9 9 8 8 8 8 8 8 8 8 9 9 9 10 9
10 9 9 9 9 8 8 8 7 6 6 7 6 6 6 6 6 6 8 9 9 10 10 10 11 11 10 10 9 9 8 8 8 8 8 8 8 8 10 9 10 10
10 10 10 10 9 8 8 7 7 7 6 6 6 6 6 6 7 7 8 9 10 10 10 10 11 11 11 11 10 9 8 7 7 8 7 8 9 9 9 9 10 10
10 9 9 9 8 8 7 7 7 7 7 6 6 6 6 7 7 8 8 8 9 9 10 11 11 11 11 11 10 9 8 7 7 7 7 7 8 9 9 10 10 10
9 9 9 8 8 8 7 7 7 7 6 6 6 7 7 7 7 8 7 8 8 9 10 10 11 11 11 11 10 9 8 7 7 7 8 8 8 8 9 9 11 11
10 9 9 9 8 8 8 7 7 6 6 7 6 7 6 7 7 8 8 8 9 9 10 10 10 10 9 9 10 10 9 7 7 7 7 8 8 9 9 10 10 10
10 9 9 9 8 8 8 7 7 6 6 7 7 7 7 7 7 7 7 8 8 9 9 9 9 8 12 16 11 8 10 7 6 6 7 7 8 8 8 9 10 11
10 10 9 9 9 8 8 8 7 6 7 7 7 7 7 7 7 7 7 7 9 9 10 9 10 9 15 14 16 15 9 9 7 6 6 7 8 8 8 8 10 11
10 10 10 10 9 9 8 8 7 7 6 6 7 7 7 6 7 6 6 6 7 9 10 10 10 12 14 15 15 17 14 10 6 6 6 7 8 8 7 8 9 9
10 10 10 9 9 8 8 8 7 6 6 6 7 7 6 7 6 6 6 6 7 9 10 11 11 12 14 15 15 16 16 12 5 6 7 7 7 9 8 9 8 9
10 10 10 10 9 8 7 8 7 6 5 5 6 6 6 6 6 7 6 6 6 8 9 10 12 12 14 15 15 18 17 14 5 5 6 6 8 8 8 9 11 11
11 11 10 9 9 8 8 7 6 5 5 5 5 5 5 6 6 6 6 6 6 6 8 9 9 12 14 16 16 18 19 16 5 6 7 7 6 9 9 10 10 9
11 10 9 9 9 8 8 7 6 6 5 5 5 5 5 5 6 6 7 7 6 6 6 8 9 12 13 14 16 18 19 8 8 6 7 7 7 9 8 8 8 9
11 11 10 9 9 8 8 7 6 5 5 4 5 4 5 5 6 6 6 7 7 6 6 7 9 10 12 13 15 17 14 8 8 8 7 8 6 9 9 8 9 8
11 10 10 9 8 8 8 6 6 5 4 3 4 4 5 5 5 5 6 7 8 8 6 6 8 9 10 11 14 16 16 10 9 9 8 8 8 9 9 8 8 10
10 10 10 9 9 8 6 6 5 4 4 4 4 4 4 5 5 5 5 5 6 7 6 5 7 8 9 10 11 13 13 10 9 9 8 9 9 9 9 8 10 5
10 10 9 9 9 8 6 5 4 4 3 3 3 4 4 4 4 5 4 4 4 5 6 6 6 6 7 8 9 10 12 11 8 9 10 10 10 9 9 9 9 9
Wind_Direction
91 94 97 97 93 91 91 95 92 90 86 79 73 68 61 55 48 47 46 43 39 33 33 27 28 25 20 29 21 24 33 22 22 9 14 13 11 10 10 4 4 359
91 93 99 100 98 96 93 88 92 89 80 73 74 73 63 59 51 45 41 44 43 41 31 32 29 28 27 26 26 25 30 25 21 9 15 18 13 9 10 360 6 357
92 95 95 94 94 94 92 91 86 82 79 78 75 68 69 59 56 52 46 39 46 37 36 33 30 27 28 26 26 26 24 25 16 10 13 18 13 11 9 2 7 0
96 100 101 97 98 95 94 93 90 85 83 78 72 74 73 68 62 59 52 48 44 42 39 36 31 27 27 26 24 28 20 27 15 8 14 16 14 11 9 5 5 3
100 96 92 92 90 87 85 84 81 81 79 78 78 73 71 69 66 57 57 52 45 46 37 40 35 31 24 27 22 23 20 18 16 13 13 14 17 12 12 7 4 6
94 94 94 93 90 87 86 85 86 86 83 79 76 75 69 63 61 61 57 56 51 45 46 38 38 31 24 25 23 23 20 16 14 13 14 16 13 14 14 10 8 9
96 92 90 89 87 87 86 83 81 77 75 77 75 69 69 66 60 58 56 50 52 48 40 39 36 30 23 22 21 20 22 17 9 15 10 16 6 13 16 11 10 7
98 94 91 89 89 87 87 84 81 79 81 79 73 66 62 62 63 56 56 58 51 46 42 38 32 30 21 20 19 15 20 16 12 10 12 13 9 13 15 12 8 7
100 98 96 94 90 87 85 84 80 79 75 80 78 75 62 58 61 59 53 53 52 48 43 35 30 24 21 18 17 13 13 17 13 13 10 12 10 14 11 11 9 8
100 99 97 94 90 85 83 81 83 81 78 71 68 70 74 64 56 57 58 52 48 47 43 35 28 22 20 13 16 5 10 10 9 13 9 12 11 11 11 12 9 9
102 98 95 91 89 89 87 87 81 78 75 76 73 67 63 63 59 59 60 55 49 43 40 36 27 21 15 9 7 4 1 6 8 10 10 11 9 12 17 11 8 12
105 102 99 97 96 92 90 87 87 84 80 71 67 71 67 64 63 52 52 58 52 45 39 34 29 20 14 6 1 1 359 359 8 6 7 10 10 13 16 13 10 7
108 105 102 100 97 95 94 89 83 81 77 71 67 65 66 67 65 65 59 56 56 48 39 33 27 20 13 4 1 360 352 354 9 8 8 16 14 11 18 11 11 7
112 111 108 104 102 100 95 94 91 84 77 73 66 60 60 60 61 66 68 62 59 52 43 35 26 22 16 5 359 355 341 356 11 11 4 18 15 16 16 11 11 9
115 113 113 113 108 102 97 88 81 76 76 76 74 68 59 59 61 61 64 67 63 54 47 37 29 23 17 360 356 353 339 354 10 8 6 18 13 15 13 17 8 7
120 120 115 113 109 103 96 90 85 80 77 72 66 65 62 62 61 58 63 65 58 54 49 39 30 25 357 351 352 353 336 342 358 10 7 17 16 10 14 12 5 8
122 118 117 110 105 101 101 96 88 82 74 68 64 61 62 61 60 66 63 62 64 55 46 41 32 14 354 356 347 348 345 327 334 12 8 11 17 7 6 12 9 5
121 120 117 115 114 108 102 96 92 86 78 72 72 68 64 65 64 62 68 71 69 61 49 40 34 11 359 356 351 345 343 330 331 15 4 2 21 355 2 11 6 358
124 122 117 112 103 100 99 98 96 93 87 81 76 74 71 65 61 61 61 66 75 67 53 41 32 12 357 357 350 346 337 329 343 19 8 0 9 352 1 8 358 6
122 116 115 119 126 130 123 109 102 95 94 91 91 84 79 77 68 60 60 61 63 71 63 47 33 4 358 358 351 348 336 330 340 6 9 359 12 352 5 2 12 14
130 134 136 136 128 118 109 105 103 105 101 95 89 83 78 75 71 68 59 55 60 72 70 55 37 11 2 357 355 349 341 316 15 354 10 1 359 0 355 14 27 7
139 131 129 127 124 121 117 113 110 106 103 101 100 94 88 84 79 72 63 56 54 62 72 58 44 23 5 1 354 352 337 327 18 355 3 353 7 3 340 10 12 8
135 136 134 131 125 122 119 119 123 121 112 110 102 100 98 89 86 79 70 61 50 48 64 65 48 27 12 3 356 353 345 349 16 5 0 355 354 5 346 5 15 6
139 138 137 133 132 123 120 123 125 120 110 102 100 101 94 94 94 90 90 76 62 50 38 67 59 45 20 7 358 358 348 350 14 8 358 347 348 11 346 4 25 105
142 140 138 137 129 126 129 131 127 124 131 134 122 113 104 97 85 89 94 94 88 75 39 46 66 64 37 13 5 358 354 351 10 9 1 351 342 7 349 3 357 49
141 140 137 136 132 135 138 130 125 117 110 102 93 89 88 88 101 93 87 87 105 103 78 53 55 63 59 25 11 358 357 344 7 9 359 347 334 351 351 353 355 352